Location: Foulognes
(49.1413°N, 0.8183°W)
Time: 02:48:13
(UTC+00:00)

CZ-2C R/B - Pass Details

Date: 21 October 2019
Orbit: 703 x 908 km, 98.1° (Epoch: 16 November)

Event Time Altitude Azimuth Distance (km) Brightness Sun altitude
Exits shadow 19:38:10 42° 37° (NE) 1,260 3.9 -26.0°
Drops below altitude 10° 19:42:35 10° 356° (N) 2,564 5.9 -26.7°
Sets 19:45:02 0° 351° (N) 3,487 6.7 -27.1°
